Time,TemperatureF,DewpointF,PressureIn,WindDirection,WindDirectionDegrees,WindSpeedMPH,WindSpeedGustMPH,Humidity,HourlyPrecipIn,Conditions,Clouds,dailyrainin,SoftwareType,DateUTC
2013-02-14 00:00:00,30.9,27.9,29.77,SSE,152,3.0,7.0,88,0.00,,,0.00,meteohub,2013-02-14 05:00:00,
2013-02-14 00:05:00,30.9,27.9,29.77,South,169,4.0,7.0,88,0.00,,,0.00,meteohub,2013-02-14 05:05:00,
2013-02-14 00:10:00,30.9,28.0,29.78,SSE,166,3.0,7.0,89,0.00,,,0.00,meteohub,2013-02-14 05:10:00,
2013-02-14 00:15:00,31.1,28.2,29.77,South,174,5.0,7.0,89,0.00,,,0.00,meteohub,2013-02-14 05:15:00,
2013-02-14 00:20:00,30.9,28.0,29.78,SSE,159,3.0,6.0,89,0.00,,,0.00,meteohub,2013-02-14 05:20:00,
2013-02-14 00:25:00,30.9,28.0,29.77,South,187,4.0,6.0,89,0.00,,,0.00,meteohub,2013-02-14 05:25:00,
2013-02-14 00:30:00,30.9,28.0,29.78,South,188,5.0,6.0,89,0.00,,,0.00,meteohub,2013-02-14 05:30:00,
2013-02-14 00:35:00,30.9,28.4,29.78,South,170,4.0,7.0,90,0.00,,,0.00,meteohub,2013-02-14 05:35:00,
2013-02-14 00:40:00,30.9,28.4,29.78,SSW,197,4.0,7.0,90,0.00,,,0.00,meteohub,2013-02-14 05:40:00,
2013-02-14 00:45:00,30.9,28.4,29.78,SSW,208,6.0,7.0,90,0.00,,,0.00,meteohub,2013-02-14 05:45:00,
2013-02-14 00:50:00,30.9,28.4,29.78,SSW,198,4.0,6.0,90,0.00,,,0.00,meteohub,2013-02-14 05:50:00,
2013-02-14 00:56:00,30.9,28.4,29.78,SSW,195,4.0,6.0,90,0.00,,,0.00,meteohub,2013-02-14 05:56:00,
2013-02-14 01:01:00,30.9,28.4,29.78,SSW,194,4.0,6.0,90,0.00,,,0.00,meteohub,2013-02-14 06:01:00,
2013-02-14 01:06:00,30.9,28.6,29.78,SSW,206,6.0,6.0,91,0.00,,,0.00,meteohub,2013-02-14 06:06:00,
2013-02-14 01:11:00,31.1,28.8,29.78,SSW,194,3.0,7.0,91,0.00,,,0.00,meteohub,2013-02-14 06:11:00,
2013-02-14 01:16:00,31.1,28.8,29.78,South,191,4.0,7.0,91,0.00,,,0.00,meteohub,2013-02-14 06:16:00,
2013-02-14 01:21:00,30.9,28.6,29.78,South,174,5.0,7.0,91,0.00,,,0.00,meteohub,2013-02-14 06:21:00,
2013-02-14 01:26:00,30.9,28.6,29.78,South,191,5.0,7.0,91,0.00,,,0.00,meteohub,2013-02-14 06:26:00,
2013-02-14 01:31:00,30.9,28.6,29.78,South,188,4.0,7.0,91,0.00,,,0.00,meteohub,2013-02-14 06:31:00,
2013-02-14 01:36:00,30.9,28.9,29.78,SSW,197,7.0,7.0,92,0.00,,,0.00,meteohub,2013-02-14 06:36:00,
2013-02-14 01:41:00,30.7,28.4,29.77,South,185,4.0,7.0,91,0.00,,,0.00,meteohub,2013-02-14 06:41:00,
2013-02-14 01:46:00,30.6,28.2,29.78,South,176,5.0,7.0,91,0.00,,,0.00,meteohub,2013-02-14 06:46:00,
2013-02-14 01:51:00,30.4,28.0,29.77,South,181,4.0,7.0,91,0.00,,,0.00,meteohub,2013-02-14 06:51:00,
2013-02-14 01:56:00,30.2,28.2,29.78,SSW,193,5.0,7.0,92,0.00,,,0.00,meteohub,2013-02-14 06:56:00,
2013-02-14 02:01:00,30.2,28.2,29.77,SSE,155,4.0,6.0,92,0.00,,,0.00,meteohub,2013-02-14 07:01:00,
2013-02-14 02:06:00,30.2,28.2,29.77,SSE,155,5.0,6.0,92,0.00,,,0.00,meteohub,2013-02-14 07:06:00,
2013-02-14 02:11:00,30.2,28.2,29.77,SSW,203,4.0,6.0,92,0.00,,,0.00,meteohub,2013-02-14 07:11:00,
2013-02-14 02:16:00,30.0,28.0,29.77,SSW,212,4.0,6.0,92,0.00,,,0.00,meteohub,2013-02-14 07:16:00,
2013-02-14 02:21:00,29.8,28.0,29.77,SSW,204,5.0,6.0,93,0.00,,,0.00,meteohub,2013-02-14 07:21:00,
2013-02-14 02:26:00,29.8,28.0,29.77,SSW,197,5.0,7.0,93,0.00,,,0.00,meteohub,2013-02-14 07:26:00,
2013-02-14 02:31:00,29.8,28.0,29.77,SSW,210,4.0,7.0,93,0.00,,,0.00,meteohub,2013-02-14 07:31:00,
2013-02-14 02:36:00,29.8,28.0,29.77,SSW,203,3.0,7.0,93,0.00,,,0.00,meteohub,2013-02-14 07:36:00,
2013-02-14 02:41:00,29.8,28.0,29.77,South,181,4.0,7.0,93,0.00,,,0.00,meteohub,2013-02-14 07:41:00,
2013-02-14 02:46:00,29.8,28.0,29.77,SSE,155,1.0,6.0,93,0.00,,,0.00,meteohub,2013-02-14 07:46:00,
2013-02-14 02:51:00,29.8,28.4,29.77,South,183,4.0,6.0,94,0.00,,,0.00,meteohub,2013-02-14 07:51:00,
2013-02-14 02:56:00,30.0,28.6,29.77,South,174,5.0,6.0,94,0.00,,,0.00,meteohub,2013-02-14 07:56:00,
2013-02-14 03:02:00,30.0,28.6,29.77,SSE,166,5.0,6.0,94,0.00,,,0.00,meteohub,2013-02-14 08:02:00,
2013-02-14 03:07:00,30.2,28.8,29.77,SSW,195,7.0,7.0,94,0.00,,,0.00,meteohub,2013-02-14 08:07:00,
2013-02-14 03:12:00,30.0,28.6,29.77,South,187,4.0,8.0,94,0.00,,,0.00,meteohub,2013-02-14 08:12:00,
2013-02-14 03:17:00,30.0,28.6,29.77,South,177,6.0,8.0,94,0.00,,,0.00,meteohub,2013-02-14 08:17:00,
2013-02-14 03:22:00,30.0,28.6,29.77,SSE,155,4.0,10.0,94,0.00,,,0.00,meteohub,2013-02-14 08:22:00,
2013-02-14 03:27:00,30.0,28.6,29.76,SSE,147,4.0,10.0,94,0.00,,,0.00,meteohub,2013-02-14 08:27:00,
2013-02-14 03:32:00,30.0,28.6,29.76,SSE,168,6.0,10.0,94,0.00,,,0.00,meteohub,2013-02-14 08:32:00,
2013-02-14 03:37:00,30.2,28.9,29.76,South,177,6.0,8.0,95,0.00,,,0.00,meteohub,2013-02-14 08:37:00,
2013-02-14 03:42:00,30.4,29.1,29.76,South,191,4.0,8.0,95,0.00,,,0.00,meteohub,2013-02-14 08:42:00,
2013-02-14 03:47:00,30.4,29.1,29.76,SSE,163,9.0,9.0,95,0.00,,,0.00,meteohub,2013-02-14 08:47:00,
2013-02-14 03:52:00,30.6,29.3,29.76,SSE,167,5.0,9.0,95,0.00,,,0.00,meteohub,2013-02-14 08:52:00,
2013-02-14 03:57:00,30.6,29.3,29.76,SSE,153,7.0,9.0,95,0.00,,,0.00,meteohub,2013-02-14 08:57:00,
2013-02-14 04:02:00,30.7,29.5,29.76,SSE,161,4.0,9.0,95,0.00,,,0.00,meteohub,2013-02-14 09:02:00,
2013-02-14 04:07:00,30.7,29.5,29.76,South,174,8.0,10.0,95,0.00,,,0.00,meteohub,2013-02-14 09:07:00,
2013-02-14 04:12:00,30.9,29.7,29.76,SSW,208,5.0,10.0,95,0.00,,,0.00,meteohub,2013-02-14 09:12:00,
2013-02-14 04:17:00,30.9,29.7,29.76,South,175,5.0,10.0,95,0.00,,,0.00,meteohub,2013-02-14 09:17:00,
2013-02-14 04:22:00,30.9,29.7,29.75,SE,144,4.0,9.0,95,0.00,,,0.00,meteohub,2013-02-14 09:22:00,
2013-02-14 04:27:00,31.1,29.8,29.75,SSE,156,6.0,9.0,95,0.00,,,0.00,meteohub,2013-02-14 09:27:00,
2013-02-14 04:32:00,31.3,30.0,29.75,South,184,3.0,9.0,95,0.00,,,0.00,meteohub,2013-02-14 09:32:00,
2013-02-14 04:37:00,31.3,30.0,29.75,South,186,6.0,9.0,95,0.00,,,0.00,meteohub,2013-02-14 09:37:00,
2013-02-14 04:43:00,31.3,30.0,29.75,SSE,166,6.0,9.0,95,0.00,,,0.00,meteohub,2013-02-14 09:43:00,
2013-02-14 04:48:00,31.5,30.2,29.75,SSE,163,6.0,9.0,95,0.00,,,0.00,meteohub,2013-02-14 09:48:00,
2013-02-14 04:53:00,31.5,30.2,29.75,SSE,166,6.0,8.0,95,0.00,,,0.00,meteohub,2013-02-14 09:53:00,
2013-02-14 04:58:00,31.6,30.4,29.75,SSW,195,6.0,8.0,95,0.00,,,0.00,meteohub,2013-02-14 09:58:00,
2013-02-14 05:03:00,31.6,30.4,29.75,SSE,163,4.0,8.0,95,0.00,,,0.00,meteohub,2013-02-14 10:03:00,
2013-02-14 05:08:00,31.6,30.4,29.75,South,184,8.0,8.0,95,0.00,,,0.00,meteohub,2013-02-14 10:08:00,
2013-02-14 05:13:00,31.8,30.4,29.75,South,180,6.0,9.0,94,0.00,,,0.00,meteohub,2013-02-14 10:13:00,
2013-02-14 05:18:00,31.8,30.4,29.75,SSE,165,4.0,9.0,94,0.00,,,0.00,meteohub,2013-02-14 10:18:00,
2013-02-14 05:23:00,32.0,30.6,29.74,South,179,4.0,9.0,94,0.00,,,0.00,meteohub,2013-02-14 10:23:00,
2013-02-14 05:28:00,32.2,30.6,29.75,SSW,195,7.0,9.0,94,0.00,,,0.00,meteohub,2013-02-14 10:28:00,
2013-02-14 05:33:00,32.4,30.7,29.75,SSE,155,6.0,8.0,94,0.00,,,0.00,meteohub,2013-02-14 10:33:00,
2013-02-14 05:38:00,32.4,30.6,29.74,South,179,4.0,8.0,93,0.00,,,0.00,meteohub,2013-02-14 10:38:00,
2013-02-14 05:43:00,32.5,30.7,29.75,SE,140,7.0,8.0,93,0.00,,,0.00,meteohub,2013-02-14 10:43:00,
2013-02-14 05:48:00,32.5,30.7,29.74,SSE,158,7.0,8.0,93,0.00,,,0.00,meteohub,2013-02-14 10:48:00,
2013-02-14 05:53:00,32.5,30.7,29.74,SSE,160,6.0,9.0,93,0.00,,,0.00,meteohub,2013-02-14 10:53:00,
2013-02-14 05:58:00,32.5,30.7,29.74,SSE,150,7.0,9.0,93,0.00,,,0.00,meteohub,2013-02-14 10:58:00,
2013-02-14 06:03:00,32.7,30.9,29.74,SSE,153,8.0,9.0,93,0.00,,,0.00,meteohub,2013-02-14 11:03:00,
2013-02-14 06:08:00,32.7,30.7,29.74,SSE,153,7.0,9.0,92,0.00,,,0.00,meteohub,2013-02-14 11:08:00,
2013-02-14 06:13:00,32.9,30.9,29.73,SE,144,5.0,11.0,92,0.00,,,0.00,meteohub,2013-02-14 11:13:00,
2013-02-14 06:18:00,32.9,30.9,29.73,SSE,166,9.0,11.0,92,0.00,,,0.00,meteohub,2013-02-14 11:18:00,
2013-02-14 06:23:00,33.1,31.1,29.73,South,172,6.0,11.0,92,0.00,,,0.00,meteohub,2013-02-14 11:23:00,
2013-02-14 06:28:00,33.3,31.1,29.73,South,172,7.0,11.0,92,0.00,,,0.00,meteohub,2013-02-14 11:28:00,
2013-02-14 06:34:00,33.3,30.9,29.73,South,172,5.0,11.0,91,0.00,,,0.00,meteohub,2013-02-14 11:34:00,
2013-02-14 06:39:00,33.4,31.1,29.73,SSE,160,7.0,11.0,91,0.00,,,0.00,meteohub,2013-02-14 11:39:00,
2013-02-14 06:44:00,33.6,31.3,29.73,South,188,9.0,10.0,91,0.00,,,0.00,meteohub,2013-02-14 11:44:00,
2013-02-14 06:49:00,33.6,31.3,29.73,SSE,152,5.0,10.0,91,0.00,,,0.00,meteohub,2013-02-14 11:49:00,
2013-02-14 06:54:00,33.6,31.3,29.72,SSE,155,5.0,10.0,91,0.00,,,0.00,meteohub,2013-02-14 11:54:00,
2013-02-14 06:59:00,33.6,31.3,29.72,South,173,8.0,10.0,91,0.00,,,0.00,meteohub,2013-02-14 11:59:00,
2013-02-14 07:04:00,33.6,31.3,29.72,SSE,160,6.0,10.0,91,0.00,,,0.00,meteohub,2013-02-14 12:04:00,
2013-02-14 07:09:00,33.6,31.3,29.72,SSE,158,9.0,10.0,91,0.00,,,0.00,meteohub,2013-02-14 12:09:00,
2013-02-14 07:14:00,34.0,31.6,29.72,SSE,155,8.0,11.0,91,0.00,,,0.00,meteohub,2013-02-14 12:14:00,
2013-02-14 07:19:00,34.0,31.6,29.72,SSW,198,4.0,11.0,91,0.00,,,0.00,meteohub,2013-02-14 12:19:00,
2013-02-14 07:24:00,34.2,31.8,29.72,SSW,204,4.0,11.0,91,0.00,,,0.00,meteohub,2013-02-14 12:24:00,
2013-02-14 07:29:00,34.2,31.8,29.72,South,191,7.0,11.0,91,0.00,,,0.00,meteohub,2013-02-14 12:29:00,
2013-02-14 07:34:00,34.3,32.0,29.72,SSE,158,7.0,11.0,91,0.00,,,0.00,meteohub,2013-02-14 12:34:00,
2013-02-14 07:39:00,34.3,32.0,29.72,SE,137,6.0,11.0,91,0.00,,,0.00,meteohub,2013-02-14 12:39:00,
2013-02-14 07:44:00,34.5,32.2,29.72,SSE,155,7.0,11.0,91,0.00,,,0.00,meteohub,2013-02-14 12:44:00,
2013-02-14 07:49:00,34.5,32.2,29.71,SSE,160,8.0,11.0,91,0.00,,,0.00,meteohub,2013-02-14 12:49:00,
2013-02-14 07:54:00,34.5,32.2,29.71,South,191,10.0,11.0,91,0.00,,,0.00,meteohub,2013-02-14 12:54:00,
2013-02-14 07:59:00,34.7,32.4,29.71,SSE,160,8.0,11.0,91,0.00,,,0.00,meteohub,2013-02-14 12:59:00,
2013-02-14 08:04:00,34.9,32.5,29.70,SE,139,7.0,11.0,91,0.00,,,0.00,meteohub,2013-02-14 13:04:00,
2013-02-14 08:09:00,35.1,32.7,29.70,SSE,152,5.0,12.0,91,0.00,,,0.00,meteohub,2013-02-14 13:09:00,
2013-02-14 08:14:00,35.2,32.9,29.70,SE,145,11.0,12.0,91,0.00,,,0.00,meteohub,2013-02-14 13:14:00,
2013-02-14 08:20:00,35.4,32.7,29.70,SE,139,7.0,12.0,90,0.00,,,0.00,meteohub,2013-02-14 13:20:00,
2013-02-14 08:25:00,35.4,32.7,29.70,SE,134,6.0,12.0,90,0.00,,,0.00,meteohub,2013-02-14 13:25:00,
2013-02-14 08:30:00,35.4,32.7,29.70,SE,129,7.0,11.0,90,0.00,,,0.00,meteohub,2013-02-14 13:30:00,
2013-02-14 08:35:00,35.4,32.7,29.70,SE,133,6.0,11.0,90,0.00,,,0.00,meteohub,2013-02-14 13:35:00,
2013-02-14 08:40:00,35.2,32.5,29.69,SE,129,9.0,11.0,90,0.00,,,0.00,meteohub,2013-02-14 13:40:00,
2013-02-14 08:45:00,35.1,32.4,29.69,SE,139,9.0,11.0,90,0.00,,,0.00,meteohub,2013-02-14 13:45:00,
2013-02-14 08:50:00,35.1,32.4,29.69,ESE,121,9.0,11.0,90,0.00,,,0.00,meteohub,2013-02-14 13:50:00,
2013-02-14 08:55:00,35.1,32.4,29.69,SE,141,8.0,11.0,90,0.00,,,0.00,meteohub,2013-02-14 13:55:00,
2013-02-14 09:00:00,35.1,32.4,29.68,SE,127,8.0,11.0,90,0.00,,,0.00,meteohub,2013-02-14 14:00:00,
2013-02-14 09:05:00,35.2,32.5,29.68,South,178,11.0,12.0,90,0.00,,,0.00,meteohub,2013-02-14 14:05:00,
2013-02-14 09:10:00,35.4,32.5,29.68,SE,137,10.0,12.0,89,0.00,,,0.00,meteohub,2013-02-14 14:10:00,
2013-02-14 09:15:00,35.8,32.5,29.68,SSE,155,7.0,12.0,88,0.00,,,0.00,meteohub,2013-02-14 14:15:00,
2013-02-14 09:20:00,36.0,32.7,29.68,South,177,7.0,12.0,88,0.00,,,0.00,meteohub,2013-02-14 14:20:00,
2013-02-14 09:25:00,36.1,32.7,29.68,South,169,8.0,16.0,87,0.00,,,0.00,meteohub,2013-02-14 14:25:00,
2013-02-14 09:30:00,36.3,32.9,29.68,SSE,164,8.0,16.0,87,0.00,,,0.00,meteohub,2013-02-14 14:30:00,
2013-02-14 09:35:00,36.3,32.9,29.68,South,169,10.0,16.0,87,0.00,,,0.00,meteohub,2013-02-14 14:35:00,
2013-02-14 09:41:00,36.3,32.5,29.68,South,188,10.0,16.0,86,0.00,,,0.00,meteohub,2013-02-14 14:41:00,
2013-02-14 09:46:00,36.5,32.7,29.68,South,176,11.0,18.0,86,0.00,,,0.00,meteohub,2013-02-14 14:46:00,
2013-02-14 09:51:00,36.7,32.9,29.68,South,174,12.0,18.0,86,0.00,,,0.00,meteohub,2013-02-14 14:51:00,
2013-02-14 09:56:00,36.7,32.9,29.68,SSE,152,9.0,18.0,86,0.00,,,0.00,meteohub,2013-02-14 14:56:00,
2013-02-14 10:01:00,36.7,32.9,29.68,South,183,9.0,18.0,86,0.00,,,0.00,meteohub,2013-02-14 15:01:00,
2013-02-14 10:06:00,37.0,33.3,29.68,SW,224,10.0,16.0,86,0.00,,,0.00,meteohub,2013-02-14 15:06:00,
2013-02-14 10:11:00,37.4,33.3,29.68,SSE,162,8.0,16.0,85,0.00,,,0.00,meteohub,2013-02-14 15:11:00,
2013-02-14 10:16:00,37.8,33.4,29.68,South,172,8.0,16.0,84,0.00,,,0.00,meteohub,2013-02-14 15:16:00,
2013-02-14 10:21:00,37.9,33.6,29.68,SSW,203,5.0,16.0,84,0.00,,,0.00,meteohub,2013-02-14 15:21:00,
2013-02-14 10:26:00,38.5,33.8,29.67,SSW,205,10.0,14.0,83,0.00,,,0.00,meteohub,2013-02-14 15:26:00,
2013-02-14 10:31:00,38.8,33.8,29.67,SSW,203,17.0,17.0,82,0.00,,,0.00,meteohub,2013-02-14 15:31:00,
2013-02-14 10:36:00,39.4,34.3,29.67,SW,218,12.0,14.0,82,0.00,,,0.00,meteohub,2013-02-14 15:36:00,
2013-02-14 10:41:00,39.6,34.0,29.67,SSW,208,10.0,14.0,80,0.00,,,0.00,meteohub,2013-02-14 15:41:00,
2013-02-14 10:46:00,39.7,34.2,29.67,SW,224,7.0,19.0,80,0.00,,,0.00,meteohub,2013-02-14 15:46:00,
2013-02-14 10:51:00,39.9,34.3,29.67,SW,221,11.0,19.0,80,0.00,,,0.00,meteohub,2013-02-14 15:51:00,
2013-02-14 10:57:00,39.9,34.0,29.67,SW,233,16.0,19.0,79,0.00,,,0.00,meteohub,2013-02-14 15:57:00,
2013-02-14 11:02:00,40.1,34.2,29.67,WSW,238,7.0,19.0,79,0.00,,,0.00,meteohub,2013-02-14 16:02:00,
2013-02-14 11:07:00,40.1,34.2,29.67,SSW,208,9.0,17.0,79,0.00,,,0.00,meteohub,2013-02-14 16:07:00,
2013-02-14 11:12:00,40.3,34.3,29.67,SSW,211,8.0,17.0,79,0.00,,,0.00,meteohub,2013-02-14 16:12:00,
2013-02-14 11:17:00,40.5,34.5,29.67,SW,221,12.0,17.0,79,0.00,,,0.00,meteohub,2013-02-14 16:17:00,
2013-02-14 11:22:00,40.5,34.2,29.67,SSW,203,12.0,17.0,78,0.00,,,0.00,meteohub,2013-02-14 16:22:00,
2013-02-14 11:27:00,40.5,34.2,29.67,SW,226,7.0,20.0,78,0.00,,,0.00,meteohub,2013-02-14 16:27:00,
2013-02-14 11:32:00,40.5,34.2,29.66,WSW,243,7.0,20.0,78,0.00,,,0.00,meteohub,2013-02-14 16:32:00,
2013-02-14 11:37:00,40.3,34.3,29.67,WSW,245,9.0,20.0,79,0.00,,,0.00,meteohub,2013-02-14 16:37:00,
2013-02-14 11:42:00,40.3,34.3,29.67,WSW,250,8.0,20.0,79,0.00,,,0.00,meteohub,2013-02-14 16:42:00,
2013-02-14 11:47:00,40.1,34.2,29.67,SW,233,10.0,18.0,79,0.00,,,0.00,meteohub,2013-02-14 16:47:00,
2013-02-14 11:52:00,39.9,34.0,29.67,WSW,256,7.0,18.0,79,0.00,,,0.00,meteohub,2013-02-14 16:52:00,
2013-02-14 11:57:00,39.9,34.0,29.67,WSW,238,6.0,18.0,79,0.00,,,0.00,meteohub,2013-02-14 16:57:00,
2013-02-14 12:02:00,39.7,34.2,29.67,WSW,245,10.0,19.0,80,0.00,,,0.00,meteohub,2013-02-14 17:02:00,
2013-02-14 12:07:00,39.7,34.2,29.67,SW,227,9.0,19.0,80,0.00,,,0.00,meteohub,2013-02-14 17:07:00,
2013-02-14 12:12:00,39.6,34.0,29.67,SW,232,9.0,18.0,80,0.00,,,0.00,meteohub,2013-02-14 17:12:00,
2013-02-14 12:17:00,39.4,33.8,29.68,SW,218,10.0,18.0,80,0.00,,,0.00,meteohub,2013-02-14 17:17:00,
2013-02-14 12:22:00,39.4,34.0,29.67,SSW,204,6.0,18.0,81,0.00,,,0.00,meteohub,2013-02-14 17:22:00,
2013-02-14 12:27:00,39.4,34.0,29.67,SW,229,15.0,19.0,81,0.00,,,0.00,meteohub,2013-02-14 17:27:00,
2013-02-14 12:32:00,39.4,34.0,29.67,West,260,13.0,19.0,81,0.00,,,0.00,meteohub,2013-02-14 17:32:00,
2013-02-14 12:37:00,39.6,34.0,29.67,WSW,253,12.0,19.0,80,0.00,,,0.00,meteohub,2013-02-14 17:37:00,
2013-02-14 12:42:00,39.6,34.0,29.67,SW,221,8.0,18.0,80,0.00,,,0.00,meteohub,2013-02-14 17:42:00,
2013-02-14 12:47:00,39.6,34.0,29.67,WSW,241,6.0,18.0,80,0.00,,,0.00,meteohub,2013-02-14 17:47:00,
2013-02-14 12:52:00,39.6,34.0,29.66,SW,231,9.0,18.0,80,0.00,,,0.00,meteohub,2013-02-14 17:52:00,
2013-02-14 12:57:00,39.6,33.6,29.66,WSW,247,11.0,18.0,79,0.00,,,0.00,meteohub,2013-02-14 17:57:00,
2013-02-14 13:03:00,39.6,33.6,29.66,SW,233,8.0,21.0,79,0.00,,,0.00,meteohub,2013-02-14 18:03:00,
2013-02-14 13:08:00,39.6,33.6,29.66,WSW,245,9.0,21.0,79,0.00,,,0.00,meteohub,2013-02-14 18:08:00,
2013-02-14 13:13:00,39.4,33.8,29.66,WSW,239,11.0,21.0,80,0.00,,,0.00,meteohub,2013-02-14 18:13:00,
2013-02-14 13:18:00,39.4,33.8,29.66,WSW,243,6.0,21.0,80,0.00,,,0.00,meteohub,2013-02-14 18:18:00,
2013-02-14 13:23:00,39.2,33.8,29.66,WSW,248,13.0,18.0,81,0.00,,,0.00,meteohub,2013-02-14 18:23:00,
2013-02-14 13:28:00,39.0,33.6,29.66,WSW,242,11.0,18.0,81,0.00,,,0.00,meteohub,2013-02-14 18:28:00,
2013-02-14 13:33:00,39.0,33.6,29.66,WSW,239,21.0,21.0,81,0.00,,,0.00,meteohub,2013-02-14 18:33:00,
2013-02-14 13:38:00,38.8,33.8,29.65,SW,229,15.0,21.0,82,0.00,,,0.00,meteohub,2013-02-14 18:38:00,
2013-02-14 13:43:00,38.8,33.8,29.66,SW,219,15.0,24.0,82,0.00,,,0.00,meteohub,2013-02-14 18:43:00,
2013-02-14 13:48:00,38.7,33.6,29.66,West,262,8.0,24.0,82,0.00,,,0.00,meteohub,2013-02-14 18:48:00,
2013-02-14 13:53:00,38.7,34.0,29.66,West,277,7.0,22.0,83,0.00,,,0.00,meteohub,2013-02-14 18:53:00,
2013-02-14 13:58:00,38.5,33.8,29.66,WSW,239,13.0,22.0,83,0.00,,,0.00,meteohub,2013-02-14 18:58:00,
2013-02-14 14:03:00,38.5,33.8,29.66,WSW,239,20.0,20.0,83,0.00,,,0.00,meteohub,2013-02-14 19:03:00,
2013-02-14 14:08:00,38.5,34.2,29.66,SW,228,13.0,20.0,84,0.00,,,0.00,meteohub,2013-02-14 19:08:00,
2013-02-14 14:13:00,38.3,34.0,29.66,SW,226,11.0,28.0,84,0.00,,,0.00,meteohub,2013-02-14 19:13:00,
2013-02-14 14:18:00,38.3,34.0,29.66,SW,236,9.0,28.0,84,0.00,,,0.00,meteohub,2013-02-14 19:18:00,
2013-02-14 14:23:00,38.1,33.8,29.66,SW,228,9.0,23.0,84,0.00,,,0.00,meteohub,2013-02-14 19:23:00,
2013-02-14 14:28:00,37.9,33.8,29.66,SW,229,17.0,23.0,85,0.00,,,0.00,meteohub,2013-02-14 19:28:00,
2013-02-14 14:33:00,37.8,33.6,29.66,WSW,245,12.0,25.0,85,0.00,,,0.00,meteohub,2013-02-14 19:33:00,
2013-02-14 14:38:00,37.6,33.8,29.66,WSW,250,14.0,25.0,86,0.00,,,0.00,meteohub,2013-02-14 19:38:00,
2013-02-14 14:43:00,37.4,33.8,29.67,WSW,250,13.0,23.0,87,0.00,,,0.00,meteohub,2013-02-14 19:43:00,
2013-02-14 14:49:00,37.2,34.0,29.67,WSW,245,8.0,23.0,88,0.00,,,0.00,meteohub,2013-02-14 19:49:00,
2013-02-14 14:54:00,37.0,34.2,29.67,WSW,248,10.0,21.0,89,0.00,,,0.00,meteohub,2013-02-14 19:54:00,
2013-02-14 14:59:00,36.7,34.0,29.67,West,269,9.0,21.0,90,0.00,,,0.00,meteohub,2013-02-14 19:59:00,
2013-02-14 15:04:00,36.3,34.0,29.67,WSW,239,9.0,21.0,91,0.00,,,0.00,meteohub,2013-02-14 20:04:00,
2013-02-14 15:09:00,36.0,33.6,29.67,WSW,245,9.0,18.0,91,0.01,,,0.01,meteohub,2013-02-14 20:09:00,
2013-02-14 15:14:00,35.4,33.3,29.68,West,259,11.0,18.0,92,0.01,,,0.01,meteohub,2013-02-14 20:14:00,
2013-02-14 15:19:00,35.1,33.3,29.68,West,263,12.0,18.0,93,0.02,,,0.02,meteohub,2013-02-14 20:19:00,
2013-02-14 15:24:00,34.9,33.3,29.68,WSW,239,7.0,21.0,94,0.02,,,0.02,meteohub,2013-02-14 20:24:00,
2013-02-14 15:29:00,34.7,33.4,29.68,WSW,247,11.0,17.0,95,0.02,,,0.02,meteohub,2013-02-14 20:29:00,
2013-02-14 15:34:00,34.7,33.4,29.68,SW,231,11.0,17.0,95,0.02,,,0.02,meteohub,2013-02-14 20:34:00,
2013-02-14 15:39:00,34.5,33.4,29.68,WSW,240,15.0,19.0,96,0.03,,,0.03,meteohub,2013-02-14 20:39:00,
2013-02-14 15:44:00,34.5,33.4,29.68,WSW,239,12.0,19.0,96,0.03,,,0.03,meteohub,2013-02-14 20:44:00,
2013-02-14 15:49:00,34.7,33.6,29.68,WSW,240,8.0,19.0,96,0.03,,,0.03,meteohub,2013-02-14 20:49:00,
2013-02-14 15:54:00,34.7,34.0,29.68,West,262,15.0,19.0,97,0.03,,,0.03,meteohub,2013-02-14 20:54:00,
2013-02-14 15:59:00,34.9,34.2,29.68,WSW,250,12.0,17.0,97,0.03,,,0.03,meteohub,2013-02-14 20:59:00,
2013-02-14 16:04:00,34.9,34.2,29.69,WSW,250,10.0,17.0,97,0.03,,,0.03,meteohub,2013-02-14 21:04:00,
2013-02-14 16:09:00,34.9,34.2,29.69,West,260,11.0,21.0,97,0.02,,,0.03,meteohub,2013-02-14 21:09:00,
2013-02-14 16:14:00,34.9,34.2,29.69,WSW,245,10.0,21.0,97,0.02,,,0.03,meteohub,2013-02-14 21:14:00,
2013-02-14 16:19:00,34.9,34.2,29.70,WSW,250,9.0,17.0,97,0.02,,,0.03,meteohub,2013-02-14 21:19:00,
2013-02-14 16:24:00,35.1,34.3,29.70,West,259,13.0,17.0,97,0.02,,,0.03,meteohub,2013-02-14 21:24:00,
2013-02-14 16:29:00,35.1,34.5,29.70,WSW,248,16.0,21.0,98,0.02,,,0.04,meteohub,2013-02-14 21:29:00,
2013-02-14 16:34:00,35.1,34.5,29.70,West,262,9.0,21.0,98,0.02,,,0.04,meteohub,2013-02-14 21:34:00,
2013-02-14 16:39:00,35.1,34.5,29.70,WSW,250,8.0,21.0,98,0.02,,,0.04,meteohub,2013-02-14 21:39:00,
2013-02-14 16:45:00,35.1,34.5,29.70,WSW,248,19.0,21.0,98,0.02,,,0.04,meteohub,2013-02-14 21:45:00,
2013-02-14 16:50:00,35.1,34.5,29.70,West,264,13.0,22.0,98,0.02,,,0.05,meteohub,2013-02-14 21:50:00,
2013-02-14 16:55:00,35.1,34.5,29.71,WSW,252,13.0,22.0,98,0.02,,,0.05,meteohub,2013-02-14 21:55:00,
2013-02-14 17:00:00,35.1,34.5,29.71,WSW,248,10.0,23.0,98,0.02,,,0.05,meteohub,2013-02-14 22:00:00,
2013-02-14 17:05:00,35.1,34.5,29.72,WNW,298,10.0,23.0,98,0.02,,,0.05,meteohub,2013-02-14 22:05:00,
2013-02-14 17:10:00,35.1,34.5,29.72,West,278,15.0,28.0,98,0.02,,,0.05,meteohub,2013-02-14 22:10:00,
2013-02-14 17:15:00,35.1,34.5,29.72,West,259,15.0,28.0,98,0.02,,,0.05,meteohub,2013-02-14 22:15:00,
2013-02-14 17:20:00,34.9,34.3,29.73,West,281,11.0,23.0,98,0.01,,,0.05,meteohub,2013-02-14 22:20:00,
2013-02-14 17:25:00,34.9,34.3,29.73,West,281,23.0,23.0,98,0.01,,,0.05,meteohub,2013-02-14 22:25:00,
2013-02-14 17:30:00,34.5,34.0,29.74,West,277,13.0,23.0,98,0.01,,,0.05,meteohub,2013-02-14 22:30:00,
2013-02-14 17:35:00,34.3,33.8,29.74,West,273,18.0,23.0,98,0.01,,,0.05,meteohub,2013-02-14 22:35:00,
2013-02-14 17:40:00,34.3,33.8,29.74,West,273,9.0,23.0,98,0.00,,,0.05,meteohub,2013-02-14 22:40:00,
2013-02-14 17:45:00,34.2,33.6,29.75,WNW,283,13.0,23.0,98,0.00,,,0.05,meteohub,2013-02-14 22:45:00,
2013-02-14 17:50:00,34.0,33.4,29.75,West,271,14.0,20.0,98,0.00,,,0.05,meteohub,2013-02-14 22:50:00,
2013-02-14 17:55:00,33.6,33.1,29.76,NW,308,15.0,20.0,98,0.00,,,0.05,meteohub,2013-02-14 22:55:00,
2013-02-14 18:00:00,33.4,32.9,29.77,WNW,285,14.0,23.0,98,0.00,,,0.05,meteohub,2013-02-14 23:00:00,
2013-02-14 18:05:00,33.3,32.7,29.77,WNW,284,9.0,23.0,98,0.00,,,0.05,meteohub,2013-02-14 23:05:00,
2013-02-14 18:10:00,33.3,32.7,29.78,WNW,288,16.0,27.0,98,0.00,,,0.05,meteohub,2013-02-14 23:10:00,
2013-02-14 18:15:00,33.1,32.5,29.78,West,281,16.0,27.0,98,0.00,,,0.05,meteohub,2013-02-14 23:15:00,
2013-02-14 18:20:00,33.1,32.5,29.78,WNW,289,16.0,27.0,98,0.00,,,0.05,meteohub,2013-02-14 23:20:00,
2013-02-14 18:25:00,32.7,32.2,29.78,WNW,286,14.0,26.0,98,0.00,,,0.05,meteohub,2013-02-14 23:25:00,
2013-02-14 18:30:00,32.7,32.2,29.79,West,262,16.0,26.0,98,0.00,,,0.05,meteohub,2013-02-14 23:30:00,
2013-02-14 18:36:00,32.7,32.2,29.80,West,271,12.0,26.0,98,0.00,,,0.05,meteohub,2013-02-14 23:36:00,
2013-02-14 18:41:00,32.7,32.2,29.80,West,273,12.0,23.0,98,0.00,,,0.05,meteohub,2013-02-14 23:41:00,
2013-02-14 18:46:00,32.7,32.2,29.81,WNW,286,9.0,23.0,98,0.00,,,0.05,meteohub,2013-02-14 23:46:00,
2013-02-14 18:51:00,32.5,32.0,29.81,West,262,13.0,23.0,98,0.00,,,0.05,meteohub,2013-02-14 23:51:00,
2013-02-14 18:56:00,32.5,32.0,29.81,WNW,284,17.0,23.0,98,0.00,,,0.05,meteohub,2013-02-14 23:56:00,
2013-02-14 19:01:00,32.5,32.0,29.81,WNW,285,14.0,21.0,98,0.00,,,0.05,meteohub,2013-02-15 00:01:00,
2013-02-14 19:06:00,32.5,32.0,29.81,WNW,289,14.0,21.0,98,0.00,,,0.05,meteohub,2013-02-15 00:06:00,
2013-02-14 19:11:00,32.5,32.0,29.82,West,281,14.0,24.0,98,0.00,,,0.05,meteohub,2013-02-15 00:11:00,
2013-02-14 19:16:00,32.5,32.0,29.82,West,277,15.0,24.0,98,0.00,,,0.05,meteohub,2013-02-15 00:16:00,
2013-02-14 19:21:00,32.5,32.0,29.82,WNW,287,12.0,24.0,98,0.00,,,0.05,meteohub,2013-02-15 00:21:00,
2013-02-14 19:26:00,32.5,32.0,29.83,West,278,12.0,24.0,98,0.00,,,0.05,meteohub,2013-02-15 00:26:00,
2013-02-14 19:31:00,32.5,32.0,29.83,West,264,11.0,23.0,98,0.00,,,0.05,meteohub,2013-02-15 00:31:00,
2013-02-14 19:36:00,32.5,32.0,29.83,West,276,9.0,23.0,98,0.00,,,0.05,meteohub,2013-02-15 00:36:00,
2013-02-14 19:41:00,32.5,32.0,29.84,West,277,8.0,21.0,98,0.00,,,0.05,meteohub,2013-02-15 00:41:00,
2013-02-14 19:46:00,32.5,32.0,29.84,WNW,290,8.0,21.0,98,0.00,,,0.05,meteohub,2013-02-15 00:46:00,
2013-02-14 19:51:00,32.4,31.8,29.84,West,267,12.0,19.0,98,0.00,,,0.05,meteohub,2013-02-15 00:51:00,
2013-02-14 19:56:00,32.4,31.8,29.85,WNW,286,10.0,19.0,98,0.00,,,0.05,meteohub,2013-02-15 00:56:00,
2013-02-14 20:01:00,32.4,31.8,29.85,West,263,15.0,19.0,98,0.00,,,0.05,meteohub,2013-02-15 01:01:00,
2013-02-14 20:06:00,32.4,31.8,29.85,West,276,8.0,19.0,98,0.00,,,0.05,meteohub,2013-02-15 01:06:00,
2013-02-14 20:11:00,32.4,31.8,29.85,WNW,293,13.0,25.0,98,0.00,,,0.05,meteohub,2013-02-15 01:11:00,
2013-02-14 20:16:00,32.4,31.8,29.86,WNW,290,10.0,25.0,98,0.00,,,0.05,meteohub,2013-02-15 01:16:00,
2013-02-14 20:21:00,32.4,31.8,29.86,West,273,13.0,23.0,98,0.00,,,0.05,meteohub,2013-02-15 01:21:00,
2013-02-14 20:26:00,32.4,31.8,29.86,WNW,290,11.0,23.0,98,0.00,,,0.05,meteohub,2013-02-15 01:26:00,
2013-02-14 20:32:00,32.4,31.8,29.86,West,280,13.0,19.0,98,0.00,,,0.05,meteohub,2013-02-15 01:32:00,
2013-02-14 20:37:00,32.4,31.8,29.86,WNW,286,9.0,19.0,98,0.00,,,0.05,meteohub,2013-02-15 01:37:00,
2013-02-14 20:42:00,32.2,31.6,29.86,WNW,286,14.0,20.0,98,0.00,,,0.05,meteohub,2013-02-15 01:42:00,
2013-02-14 20:47:00,32.2,31.5,29.87,WNW,284,10.0,20.0,97,0.00,,,0.05,meteohub,2013-02-15 01:47:00,
2013-02-14 20:52:00,32.2,31.5,29.87,WNW,283,8.0,20.0,97,0.00,,,0.05,meteohub,2013-02-15 01:52:00,
2013-02-14 20:57:00,32.2,31.5,29.87,WNW,301,12.0,20.0,97,0.00,,,0.05,meteohub,2013-02-15 01:57:00,
2013-02-14 21:02:00,32.2,31.5,29.87,West,271,16.0,16.0,97,0.00,,,0.05,meteohub,2013-02-15 02:02:00,
2013-02-14 21:07:00,32.2,31.6,29.88,WSW,256,8.0,16.0,98,0.00,,,0.05,meteohub,2013-02-15 02:07:00,
2013-02-14 21:12:00,32.2,31.6,29.88,WNW,283,13.0,19.0,98,0.00,,,0.05,meteohub,2013-02-15 02:12:00,
2013-02-14 21:17:00,32.2,31.5,29.88,WNW,300,10.0,19.0,97,0.00,,,0.05,meteohub,2013-02-15 02:17:00,
2013-02-14 21:22:00,32.0,31.3,29.88,WNW,297,10.0,17.0,97,0.00,,,0.05,meteohub,2013-02-15 02:22:00,
2013-02-14 21:27:00,31.8,31.1,29.88,NW,306,9.0,17.0,97,0.00,,,0.05,meteohub,2013-02-15 02:27:00,
2013-02-14 21:32:00,31.6,30.9,29.88,WNW,297,9.0,16.0,97,0.00,,,0.05,meteohub,2013-02-15 02:32:00,
2013-02-14 21:37:00,31.6,30.9,29.88,WNW,285,8.0,16.0,97,0.00,,,0.05,meteohub,2013-02-15 02:37:00,
2013-02-14 21:42:00,31.5,30.7,29.88,NW,304,8.0,16.0,97,0.00,,,0.05,meteohub,2013-02-15 02:42:00,
2013-02-14 21:47:00,31.3,30.2,29.89,WNW,297,8.0,16.0,96,0.00,,,0.05,meteohub,2013-02-15 02:47:00,
2013-02-14 21:52:00,31.3,30.2,29.89,NW,311,7.0,16.0,96,0.00,,,0.05,meteohub,2013-02-15 02:52:00,
2013-02-14 21:57:00,30.9,29.7,29.89,NW,313,7.0,16.0,95,0.00,,,0.05,meteohub,2013-02-15 02:57:00,
2013-02-14 22:03:00,30.9,29.7,29.90,NNW,331,8.0,16.0,95,0.00,,,0.05,meteohub,2013-02-15 03:03:00,
2013-02-14 22:08:00,30.7,29.5,29.90,NW,306,5.0,16.0,95,0.00,,,0.05,meteohub,2013-02-15 03:08:00,
2013-02-14 22:13:00,30.7,29.3,29.90,WNW,295,7.0,15.0,94,0.00,,,0.05,meteohub,2013-02-15 03:13:00,
2013-02-14 22:18:00,30.6,28.8,29.90,NNW,332,8.0,15.0,93,0.00,,,0.05,meteohub,2013-02-15 03:18:00,
2013-02-14 22:23:00,30.4,28.9,29.91,NW,326,12.0,18.0,94,0.00,,,0.05,meteohub,2013-02-15 03:23:00,
2013-02-14 22:28:00,30.0,28.2,29.91,WNW,297,5.0,18.0,93,0.00,,,0.05,meteohub,2013-02-15 03:28:00,
2013-02-14 22:33:00,30.0,28.2,29.91,NW,319,8.0,18.0,93,0.00,,,0.05,meteohub,2013-02-15 03:33:00,
2013-02-14 22:38:00,30.0,28.2,29.91,NW,319,5.0,18.0,93,0.00,,,0.05,meteohub,2013-02-15 03:38:00,
2013-02-14 22:43:00,29.8,27.9,29.91,NW,315,8.0,14.0,92,0.00,,,0.05,meteohub,2013-02-15 03:43:00,
2013-02-14 22:48:00,29.8,27.9,29.92,WNW,297,10.0,14.0,92,0.00,,,0.05,meteohub,2013-02-15 03:48:00,
2013-02-14 22:53:00,29.8,27.5,29.92,NW,326,12.0,13.0,91,0.00,,,0.05,meteohub,2013-02-15 03:53:00,
2013-02-14 22:58:00,29.8,27.5,29.92,NW,311,6.0,13.0,91,0.00,,,0.05,meteohub,2013-02-15 03:58:00,
2013-02-14 23:03:00,29.8,27.9,29.92,WNW,293,5.0,14.0,92,0.00,,,0.05,meteohub,2013-02-15 04:03:00,
2013-02-14 23:08:00,29.7,27.3,29.93,NW,320,7.0,14.0,91,0.00,,,0.05,meteohub,2013-02-15 04:08:00,
2013-02-14 23:13:00,29.7,27.3,29.93,NW,320,5.0,12.0,91,0.00,,,0.05,meteohub,2013-02-15 04:13:00,
2013-02-14 23:18:00,29.7,27.7,29.93,NW,314,4.0,12.0,92,0.00,,,0.05,meteohub,2013-02-15 04:18:00,
2013-02-14 23:23:00,29.7,27.7,29.93,NW,308,5.0,12.0,92,0.00,,,0.05,meteohub,2013-02-15 04:23:00,
2013-02-14 23:28:00,29.5,27.5,29.93,WNW,287,6.0,12.0,92,0.00,,,0.05,meteohub,2013-02-15 04:28:00,
2013-02-14 23:33:00,29.5,27.0,29.94,NW,312,8.0,10.0,90,0.00,,,0.05,meteohub,2013-02-15 04:33:00,
2013-02-14 23:38:00,29.1,26.6,29.93,NW,315,6.0,10.0,90,0.00,,,0.05,meteohub,2013-02-15 04:38:00,
2013-02-14 23:43:00,28.9,26.1,29.94,NW,304,6.0,11.0,89,0.00,,,0.05,meteohub,2013-02-15 04:43:00,
2013-02-14 23:48:00,28.8,25.9,29.94,NW,320,5.0,11.0,89,0.00,,,0.05,meteohub,2013-02-15 04:48:00,
2013-02-14 23:53:00,28.6,25.5,29.94,NW,321,5.0,12.0,88,0.00,,,0.05,meteohub,2013-02-15 04:53:00,
2013-02-14 23:59:00,28.2,25.2,29.94,NNW,332,5.0,11.0,88,0.00,,,0.05,meteohub,2013-02-15 04:59:00,